Location: Ferchesar
(52.6477°N, 12.4298°E)
Time: 17:56:37
(UTC+01:00)

Vanguard 1 Rocket - Pass Details

Date: 14 December 2021
Orbit: 651 x 4224 km, 34.3° (Epoch: 16 January)

Event Time Altitude Azimuth Distance (km) Brightness Sun altitude
Exits shadow 05:04:32 20° 225° (SW) 3,980 10.3 -27.3°
Maximum altitude 05:09:39 25° 197° (SSW) 4,224 10.6 -26.5°
Drops below altitude 10° 05:23:50 10° 152° (SSE) 6,658 12.2 -24.4°
Sets 05:31:21 0° 142° (SE) 8,128 12.9 -23.3°
